Location: Sternwarte ZA, Rosenfeld-Brittheim
(48.2889°N, 8.6789°E)
Time: 07:06:20
(UTC+02:00)

ISS - Visible Passes

Search period start: 16 July 2018 00:00
Search period end: 26 July 2018 00:00
Orbit: 402 x 408 km, 51.6° (Epoch: 16 July)

Date Brightness Start Highest point End Pass type
(mag) Time Alt. Az. Time Alt. Az. Time Alt. Az.
16 Jul -1.8 00:59:18 19° E 00:59:18 19° E 01:00:26 10° ENE visible
16 Jul -3.1 02:31:56 23° W 02:33:45 53° NNW 02:37:00 10° ENE visible
16 Jul -2.8 04:07:22 10° WNW 04:10:35 49° N 04:13:48 10° E visible
17 Jul -3.6 01:41:12 58° WNW 01:41:37 67° NNW 01:44:55 10° ENE visible
17 Jul -2.6 03:15:13 10° WNW 03:18:25 44° N 03:21:36 10° ENE visible
17 Jul -3.8 04:51:49 10° WNW 04:55:07 89° NNE 04:58:26 10° ESE visible
18 Jul -3.4 00:50:13 53° ENE 00:50:13 53° ENE 00:52:50 10° ENE visible
18 Jul -2.7 02:23:02 10° WNW 02:26:13 45° N 02:29:25 10° ENE visible
18 Jul -3.4 03:59:43 10° WNW 04:03:01 65° NNE 04:06:17 10° E visible
18 Jul-0.422:25:46E22:25:46E22:17:26Svisible
18 Jul -3.3 23:58:13 43° E 23:58:13 43° E 00:00:42 10° ENE visible
19 Jul -2.9 01:30:49 10° W 01:34:02 49° N 01:37:15 10° ENE visible
19 Jul -3.0 03:07:37 10° WNW 03:10:51 52° N 03:14:05 10° E visible
19 Jul -3.7 04:44:10 10° WNW 04:47:23 51° SSW 04:50:35 10° SE visible
19 Jul -3.3 23:02:24 10° SW 23:05:26 36° SSE 23:08:29 10° ENE visible
20 Jul -3.3 00:38:35 10° W 00:41:50 61° NNW 00:45:07 10° ENE visible
20 Jul -2.7 02:15:27 10° WNW 02:18:39 45° N 02:21:51 10° E visible
20 Jul -4.0 03:52:01 10° WNW 03:55:19 79° SSW 03:58:36 10° ESE visible
20 Jul -2.6 22:10:53 10° SSW 22:13:29 22° SE 22:16:06 10° E visible
20 Jul -3.8 23:46:24 10° WSW 23:49:41 82° NNW 23:52:59 10° ENE visible
21 Jul -2.7 01:23:14 10° WNW 01:26:25 44° N 01:29:36 10° ENE visible
21 Jul -3.6 02:59:53 10° WNW 03:03:11 73° NNE 03:06:29 10° ESE visible
21 Jul -2.8 04:36:38 10° W 04:39:28 26° SW 04:42:16 10° SSE visible
21 Jul -3.9 22:54:19 10° WSW 22:57:34 68° SSE 23:00:51 10° ENE visible
22 Jul -2.8 00:30:59 10° W 00:34:11 47° N 00:37:24 10° ENE visible
22 Jul -3.2 02:07:45 10° WNW 02:11:00 56° NNE 02:14:15 10° E visible
22 Jul -3.5 03:44:19 10° WNW 03:47:28 42° SSW 03:50:36 10° SE visible
22 Jul -3.5 22:02:23 10° SW 22:05:30 42° SSE 22:08:38 10° ENE visible
22 Jul -3.1 23:38:43 10° W 23:41:57 55° NNW 23:45:12 10° ENE visible
23 Jul -2.8 01:15:34 10° WNW 01:18:46 47° N 01:20:48 20° ENE visible
23 Jul -1.9 02:52:06 10° WNW 02:53:17 20° WNW 02:53:17 20° WNW visible
23 Jul -3.6 22:46:28 10° WSW 22:49:45 73° NNW 22:53:02 10° ENE visible
24 Jul -2.7 00:23:20 10° WNW 00:26:31 44° N 00:29:05 14° ENE visible
24 Jul -2.3 01:59:56 10° WNW 02:01:40 29° WNW 02:01:40 29° WNW visible
24 Jul -3.9 21:54:18 10° WSW 21:57:34 79° SSE 22:00:52 10° ENE visible
24 Jul -2.7 23:31:03 10° W 23:34:14 45° N 23:37:26 10° ENE visible
25 Jul -3.2 01:07:46 10° WNW 01:10:41 56° NNW 01:10:41 56° NNW visible
25 Jul -3.0 22:38:44 10° W 22:41:58 52° N 22:45:11 10° ENE visible
